EA3KZ-1 Weather Reports


Display with metric or nautical units.
time (UTC)temp
F
wind
direction
speed
MPH
gust
MPH
rain 1hr
in
rain 24hr
in
rain mn
in
humidity
%
barometer
mb
20260507010554 53 296 4.0 6.0 0.00 0.00 0.00 87 1008.9
20260507005552 53 293 4.0 6.0 0.00 0.00 0.00 87 1008.9
20260507004549 53 286 4.0 6.0 0.00 0.00 0.00 87 1009.0
20260507003547 53 301 4.0 7.0 0.00 0.00 0.00 88 1009.0
20260507002544 53 296 4.0 6.0 0.00 0.00 0.00 88 1009.0
20260507001541 53 288 3.0 7.0 0.00 0.00 0.00 88 1009.2
20260507000539 53 293 5.0 7.0 0.00 0.00 0.00 88 1009.1
20260506235536 53 307 4.0 7.0 0.00 0.00 0.00 88 1009.2
20260506234534 54 294 5.0 8.0 0.00 0.00 0.00 89 1009.1
20260506233531 54 280 4.0 8.0 0.00 0.00 0.00 89 1009.2
20260506232529 54 296 5.0 7.0 0.00 0.00 0.00 89 1009.3
20260506231526 54 303 5.0 7.0 0.00 0.00 0.00 89 1009.3
20260506230523 54 293 5.0 8.0 0.00 0.00 0.00 88 1009.3
20260506225521 54 290 5.0 7.0 0.00 0.00 0.00 87 1009.3
20260506224518 54 289 4.0 8.0 0.00 0.00 0.00 85 1009.3
20260506223515 55 307 4.0 7.0 0.00 0.00 0.00 84 1009.3
20260506222613 55 307 3.0 4.0 0.00 0.00 0.00 84 1009.3
20260506221610 55 282 4.0 6.0 0.00 0.00 0.00 84 1009.3
20260506220608 55 297 2.0 4.0 0.00 0.00 0.00 83 1009.3
20260506215605 55 311 3.0 6.0 0.00 0.00 0.00 83 1009.2
20260506214603 55 276 2.0 4.0 0.00 0.00 0.00 83 1009.1
20260506213600 55 300 3.0 4.0 0.00 0.00 0.00 82 1009.2
20260506212557 56 295 2.0 4.0 0.00 0.00 0.00 83 1009.2
20260506211555 56 307 4.0 6.0 0.00 0.00 0.00 82 1009.2
20260506210552 57 341 2.0 4.0 0.00 0.00 0.00 80 1009.1
20260506205550 57 6 1.0 2.0 0.00 0.00 0.00 79 1009.1
20260506204547 57 15 1.0 4.0 0.00 0.00 0.00 79 1008.9
20260506203544 58 15 1.0 4.0 0.00 0.00 0.00 77 1008.7
20260506202542 58 6 2.0 6.0 0.00 0.00 0.00 78 1008.7
20260506201539 57 5 2.0 4.0 0.00 0.00 0.00 80 1008.5
20260506200531 58 359 1.0 4.0 0.00 0.00 0.00 78 1008.4
20260506195528 58 14 2.0 4.0 0.00 0.00 0.00 78 1008.2
20260506194520 58 348 2.0 4.0 0.00 0.00 0.00 80 1008.0
20260506193518 58 325 2.0 6.0 0.00 0.00 0.00 78 1007.7
20260506192515 59 348 2.0 6.0 0.00 0.00 0.00 74 1007.6
20260506191607 59 33 3.0 6.0 0.00 0.00 0.00 71 1007.6
20260506190604 60 4 3.0 9.0 0.00 0.00 0.00 71 1007.4
20260506185557 60 36 5.0 11.0 0.00 0.00 0.00 71 1007.2
20260506184554 60 68 3.0 8.0 0.00 0.00 0.00 69 1007.1
20260506183551 60 5 5.0 11.0 0.00 0.00 0.00 68 1006.9
20260506182543 61 353 3.0 9.0 0.00 0.00 0.00 67 1006.8
20260506181540 61 23 4.0 7.0 0.00 0.00 0.00 67 1006.8
20260506180532 62 18 7.0 13.0 0.00 0.00 0.00 66 1006.7
20260506175529 63 55 4.0 11.0 0.00 0.00 0.00 63 1006.6
20260506174526 63 21 6.0 13.0 0.00 0.00 0.00 62 1006.5
20260506173518 64 333 4.0 13.0 0.00 0.00 0.00 59 1006.1
20260506172515 64 20 5.0 9.0 0.00 0.00 0.00 56 1006.1
20260506171607 66 55 2.0 6.0 0.00 0.01 0.00 54 1006.2
20260506170604 66 159 1.0 4.0 0.00 0.01 0.00 55 1006.1
20260506165557 66 100 1.0 4.0 0.00 0.01 0.00 54 1006.0
20260506164554 65 100 2.0 6.0 0.00 0.02 0.00 55 1006.0
20260506163551 65 102 3.0 9.0 0.00 0.02 0.00 55 1005.9
20260506162543 65 104 3.0 11.0 0.00 0.04 0.00 55 1005.9
20260506161540 67 118 2.0 6.0 0.00 0.04 0.00 54 1005.8
20260506160533 67 115 2.0 11.0 0.00 0.05 0.00 54 1005.7
20260506155530 66 71 3.0 11.0 0.00 0.24 0.00 55 1005.7
20260506154527 66 153 3.0 11.0 0.00 0.33 0.00 55 1005.6
20260506153519 68 119 4.0 9.0 0.00 0.33 0.00 52 1005.7
20260506152517 68 87 4.0 11.0 0.00 0.33 0.00 49 1005.6
20260506151608 69 149 3.0 8.0 0.00 0.33 0.00 49 1005.7
20260506150605 69 139 2.0 8.0 0.00 0.33 0.00 48 1005.7
20260506145603 68 119 4.0 7.0 0.00 0.33 0.00 49 1005.7
20260506144554 68 99 5.0 11.0 0.00 0.33 0.00 47 1005.9
20260506143551 69 108 4.0 11.0 0.00 0.33 0.00 46 1005.9
20260506142543 68 127 4.0 11.0 0.00 0.33 0.00 48 1006.0
20260506141540 68 129 5.0 11.0 0.00 0.33 0.00 48 1006.1
20260506140533 68 132 5.0 9.0 0.00 0.33 0.00 46 1006.2
20260506135530 68 142 3.0 9.0 0.00 0.33 0.00 45 1006.3
20260506134528 67 170 5.0 9.0 0.00 0.33 0.00 44 1006.3
20260506133519 69 105 2.0 9.0 0.00 0.33 0.00 43 1006.3
20260506132516 68 196 3.0 11.0 0.00 0.33 0.00 44 1006.4
20260506131608 67 133 7.0 11.0 0.00 0.33 0.00 44 1006.5
20260506130605 69 143 3.0 11.0 0.00 0.33 0.00 44 1006.6
20260506125603 67 195 4.0 14.0 0.00 0.33 0.00 47 1006.6
20260506124555 67 154 6.0 14.0 0.00 0.33 0.00 46 1006.6
20260506123552 68 162 3.0 11.0 0.00 0.33 0.00 45 1006.7
20260506122544 67 121 4.0 11.0 0.00 0.33 0.00 47 1006.7
20260506121541 66 123 4.0 11.0 0.00 0.33 0.00 48 1006.8
20260506120539 68 130 5.0 11.0 0.00 0.33 0.00 44 1006.8
20260506115530 67 103 4.0 11.0 0.00 0.33 0.00 46 1006.8
20260506114528 66 176 3.0 7.0 0.00 0.33 0.00 46 1007.0
20260506113519 66 100 3.0 8.0 0.00 0.33 0.00 48 1006.9
20260506112516 65 143 3.0 6.0 0.00 0.33 0.00 49 1007.1
20260506111610 66 122 2.0 11.0 0.00 0.33 0.00 51 1007.3
20260506110605 64 129 3.0 8.0 0.00 0.33 0.00 54 1007.4
20260506105603 64 127 3.0 8.0 0.00 0.33 0.00 56 1007.4
20260506104555 65 121 1.0 4.0 0.00 0.33 0.00 55 1007.4
20260506103552 64 118 1.0 4.0 0.00 0.33 0.00 58 1007.5
20260506102544 63 277 2.0 4.0 0.00 0.33 0.00 57 1007.6
20260506101541 62 130 3.0 8.0 0.00 0.33 0.00 58 1007.6
20260506100539 61 114 3.0 7.0 0.00 0.33 0.00 58 1007.6
20260506095531 61 141 3.0 6.0 0.00 0.33 0.00 59 1007.9
20260506094529 60 135 2.0 4.0 0.00 0.33 0.00 61 1007.9
20260506093520 59 176 4.0 8.0 0.00 0.33 0.00 61 1007.9
20260506092517 59 215 3.0 6.0 0.00 0.33 0.00 61 1008.0
20260506091515 59 174 3.0 9.0 0.00 0.33 0.00 60 1007.8
20260506090606 59 179 4.0 8.0 0.00 0.33 0.00 61 1007.7
20260506085604 59 208 4.0 9.0 0.00 0.33 0.00 61 1007.7
20260506084555 59 206 3.0 8.0 0.00 0.33 0.00 60 1007.8
20260506083553 58 213 4.0 7.0 0.00 0.33 0.00 60 1007.6
20260506082544 58 146 0.0 4.0 0.00 0.33 0.00 64 1007.6
20260506081541 57 214 3.0 7.0 0.00 0.33 0.00 64 1007.5
20260506080539 56 229 5.0 11.0 0.00 0.33 0.00 64 1007.5
20260506073520 54 230 4.0 9.0 0.00 0.33 0.00 70 1007.3
20260506072517 54 217 4.0 8.0 0.00 0.33 0.00 72 1007.2
20260506071515 53 228 6.0 11.0 0.00 0.33 0.00 74 1007.2
20260506070607 53 214 7.0 14.0 0.00 0.33 0.00 74 1007.2
20260506061542 52 242 4.0 7.0 0.00 0.33 0.00 76 1007.2
20260506060540 52 227 3.0 4.0 0.00 0.33 0.00 77 1007.1
20260506050607 50 248 1.0 6.0 0.00 0.33 0.00 80 1006.6
20260506044556 50 244 2.0 4.0 0.00 0.33 0.00 81 1006.5
20260506043554 49 243 2.0 4.0 0.00 0.33 0.00 82 1006.5
20260506042551 49 218 2.0 4.0 0.00 0.33 0.00 82 1006.5
20260506041542 50 0.0 2.0 0.00 0.33 0.00 81 1006.3
20260506040540 50 206 1.0 4.0 0.00 0.33 0.00 80 1006.3
20260506035531 51 248 1.0 4.0 0.00 0.33 0.00 78 1006.2
20260506034529 50 253 2.0 4.0 0.00 0.33 0.00 80 1006.1
20260506033520 51 274 2.0 4.0 0.00 0.33 0.00 80 1006.2
20260506032517 51 0.0 0.0 0.00 0.33 0.00 80 1006.2
20260506031515 51 263 2.0 4.0 0.00 0.33 0.00 79 1006.2
20260506030607 52 290 1.0 4.0 0.00 0.33 0.00 77 1006.3
20260506025605 53 292 4.0 7.0 0.00 0.33 0.00 75 1006.2
20260506024556 53 258 3.0 6.0 0.00 0.33 0.00 75 1006.2
20260506023554 53 260 3.0 7.0 0.00 0.33 0.00 74 1006.3
20260506022551 53 267 2.0 4.0 0.00 0.33 0.00 77 1006.1
20260506021543 52 293 0.0 2.0 0.00 0.33 0.00 77 1006.1
20260506020541 53 339 1.0 4.0 0.00 0.33 0.00 76 1006.0
20260506015532 52 315 2.0 4.0 0.00 0.33 0.00 77 1005.8
20260506014530 53 309 2.0 6.0 0.00 0.33 0.00 76 1005.9
20260506013527 52 0.0 2.0 0.00 0.33 0.00 79 1005.9
20260506012519 52 135 0.0 2.0 0.00 0.33 0.00 80 1006.0
20260506011516 53 113 1.0 2.0 0.00 0.33 0.00 79 1006.0